Location: Apeadero de Los Molinos-Guadarrama
(40.7091°N, 4.0689°W)
Time: 14:40:46
(UTC+00:00)

X-37B - Pass Details

Date: 28 September 2021
Orbit: 385 x 389 km, 45.0° (Epoch: 17 October)

Event Time Altitude Azimuth Distance (km) Brightness Sun altitude
Exits shadow 05:30:42 - 295° (WNW) 1,516 3.0 -8.2°
Reaches altitude 10° 05:30:58 10° 297° (WNW) 1,414 2.9 -8.2°
Maximum altitude 05:34:00 40° 9° (N) 585 1.6 -7.6°
Drops below altitude 10° 05:37:02 10° 81° (E) 1,414 5.2 -7.0°
Sets 05:39:11 0° 89° (E) 2,268 7.3 -6.6°
